Time,TemperatureF,DewpointF,PressureIn,WindDirection,WindDirectionDegrees,WindSpeedMPH,WindSpeedGustMPH,Humidity,HourlyPrecipIn,Conditions,Clouds,dailyrainin,SolarRadiationWatts/m^2,SoftwareType,DateUTC
2013-01-28 00:00:00,33.0,31.7,29.85,NNW,338,1.0,1.0,95,0.00,,,0.12,0,Wunderground v.1.15,2013-01-28 06:00:00,
2013-01-28 00:10:00,33.1,31.8,29.85,NNW,338,0.0,0.0,95,0.00,,,0.12,0,Wunderground v.1.15,2013-01-28 06:10:00,
2013-01-28 00:20:00,33.1,31.8,29.84,NNW,338,0.0,0.0,95,0.00,,,0.00,0,Wunderground v.1.15,2013-01-28 06:20:00,
2013-01-28 00:30:00,33.1,32.1,29.85,NNW,338,0.0,0.0,96,0.00,,,0.00,0,Wunderground v.1.15,2013-01-28 06:30:00,
2013-01-28 00:40:00,33.1,32.1,29.85,NW,316,1.0,3.0,96,0.00,,,0.00,0,Wunderground v.1.15,2013-01-28 06:40:00,
2013-01-28 00:50:00,33.1,32.1,29.85,WNW,282,2.0,2.0,96,0.00,,,0.00,0,Wunderground v.1.15,2013-01-28 06:50:00,
2013-01-28 01:00:00,33.1,32.1,29.86,West,275,1.0,1.0,96,0.00,,,0.00,0,Wunderground v.1.15,2013-01-28 07:00:00,
2013-01-28 01:10:00,33.1,32.1,29.86,West,275,1.0,1.0,96,0.00,,,0.00,0,Wunderground v.1.15,2013-01-28 07:10:00,
2013-01-28 01:20:00,33.2,32.2,29.86,West,281,2.0,2.0,96,0.00,,,0.00,0,Wunderground v.1.15,2013-01-28 07:20:00,
2013-01-28 01:30:00,33.3,32.3,29.87,WNW,284,2.0,3.0,96,0.00,,,0.00,0,Wunderground v.1.15,2013-01-28 07:30:00,
2013-01-28 01:40:00,33.4,32.4,29.87,West,278,3.0,3.0,96,0.00,,,0.00,0,Wunderground v.1.15,2013-01-28 07:40:00,
2013-01-28 01:50:00,33.6,32.6,29.87,WNW,295,3.0,3.0,96,0.00,,,0.00,0,Wunderground v.1.15,2013-01-28 07:50:00,
2013-01-28 02:00:00,33.7,32.7,29.87,West,263,2.0,2.0,96,0.00,,,0.00,0,Wunderground v.1.15,2013-01-28 08:00:00,
2013-01-28 02:10:00,34.0,33.0,29.88,West,270,3.0,3.0,96,0.00,,,0.00,0,Wunderground v.1.15,2013-01-28 08:10:00,
2013-01-28 02:20:00,34.1,33.1,29.88,WNW,291,4.0,4.0,96,0.00,,,0.00,0,Wunderground v.1.15,2013-01-28 08:20:00,
2013-01-28 02:30:00,34.2,33.2,29.88,WNW,296,4.0,4.0,96,0.00,,,0.00,0,Wunderground v.1.15,2013-01-28 08:30:00,
2013-01-28 02:40:00,34.5,33.5,29.88,WNW,301,4.0,5.0,96,0.00,,,0.01,0,Wunderground v.1.15,2013-01-28 08:40:00,
2013-01-28 02:50:00,34.4,33.4,29.88,West,277,4.0,4.0,96,0.00,,,0.01,0,Wunderground v.1.15,2013-01-28 08:50:00,
2013-01-28 03:00:00,34.2,33.2,29.89,NW,316,1.0,4.0,96,0.00,,,0.01,0,Wunderground v.1.15,2013-01-28 09:00:00,
2013-01-28 03:10:00,34.2,33.2,29.89,NNW,327,4.0,4.0,96,0.00,,,0.01,0,Wunderground v.1.15,2013-01-28 09:10:00,
2013-01-28 03:20:00,34.0,33.0,29.89,NNW,346,4.0,4.0,96,0.00,,,0.01,0,Wunderground v.1.15,2013-01-28 09:20:00,
2013-01-28 03:30:00,33.8,32.8,29.89,NNW,343,3.0,3.0,96,0.00,,,0.01,0,Wunderground v.1.15,2013-01-28 09:30:00,
2013-01-28 03:40:00,33.7,32.7,29.90,NNW,336,2.0,2.0,96,0.00,,,0.01,0,Wunderground v.1.15,2013-01-28 09:40:00,
2013-01-28 03:50:00,33.7,32.7,29.90,NNW,341,1.0,1.0,96,0.00,,,0.01,0,Wunderground v.1.15,2013-01-28 09:50:00,
2013-01-28 04:00:00,33.6,32.6,29.91,NW,325,0.0,0.0,96,0.00,,,0.01,0,Wunderground v.1.15,2013-01-28 10:00:00,
2013-01-28 04:10:00,33.7,32.7,29.91,NW,325,0.0,0.0,96,0.00,,,0.01,0,Wunderground v.1.15,2013-01-28 10:10:00,
2013-01-28 04:20:00,33.6,32.6,29.91,NNW,327,1.0,3.0,96,0.00,,,0.01,0,Wunderground v.1.15,2013-01-28 10:20:00,
2013-01-28 04:30:00,33.5,32.5,29.91,NNW,327,1.0,1.0,96,0.00,,,0.01,0,Wunderground v.1.15,2013-01-28 10:30:00,
2013-01-28 04:40:00,33.6,32.6,29.90,North,355,1.0,3.0,96,0.00,,,0.01,0,Wunderground v.1.15,2013-01-28 10:40:00,
2013-01-28 04:50:00,33.5,32.5,29.90,NNW,345,2.0,2.0,96,0.00,,,0.01,0,Wunderground v.1.15,2013-01-28 10:50:00,
2013-01-28 05:00:00,33.7,32.7,29.90,NNW,346,3.0,3.0,96,0.00,,,0.01,0,Wunderground v.1.15,2013-01-28 11:00:00,
2013-01-28 05:10:00,33.8,32.8,29.91,NNW,345,0.0,0.0,96,0.00,,,0.01,0,Wunderground v.1.15,2013-01-28 11:10:00,
2013-01-28 05:20:00,34.0,33.0,29.90,NNW,345,0.0,0.0,96,0.00,,,0.01,0,Wunderground v.1.15,2013-01-28 11:20:00,
2013-01-28 05:30:00,34.0,33.0,29.90,NNW,345,0.0,0.0,96,0.00,,,0.01,0,Wunderground v.1.15,2013-01-28 11:30:00,
2013-01-28 05:40:00,34.0,33.0,29.90,NNW,345,0.0,0.0,96,0.00,,,0.01,0,Wunderground v.1.15,2013-01-28 11:40:00,
2013-01-28 05:50:00,34.0,33.0,29.90,NNW,345,0.0,0.0,96,0.00,,,0.01,0,Wunderground v.1.15,2013-01-28 11:50:00,
2013-01-28 06:00:00,33.8,32.8,29.91,NNW,345,0.0,0.0,96,0.00,,,0.01,0,Wunderground v.1.15,2013-01-28 12:00:00,
2013-01-28 06:10:00,33.8,32.8,29.91,NNW,345,1.0,1.0,96,0.00,,,0.01,0,Wunderground v.1.15,2013-01-28 12:10:00,
2013-01-28 06:20:00,33.9,32.9,29.91,NNW,345,0.0,0.0,96,0.00,,,0.01,0,Wunderground v.1.15,2013-01-28 12:20:00,
2013-01-28 06:30:00,33.9,32.9,29.91,NNW,345,0.0,0.0,96,0.00,,,0.01,0,Wunderground v.1.15,2013-01-28 12:30:00,
2013-01-28 06:40:00,34.1,33.1,29.91,North,355,1.0,1.0,96,0.00,,,0.01,0,Wunderground v.1.15,2013-01-28 12:40:00,
2013-01-28 06:50:00,34.0,33.0,29.91,North,5,1.0,1.0,96,0.00,,,0.01,0,Wunderground v.1.15,2013-01-28 12:50:00,
2013-01-28 07:00:00,34.1,33.1,29.91,NNE,30,1.0,2.0,96,0.00,,,0.01,0,Wunderground v.1.15,2013-01-28 13:00:00,
2013-01-28 07:10:00,34.0,33.0,29.91,North,11,1.0,1.0,96,0.00,,,0.01,0,Wunderground v.1.15,2013-01-28 13:10:00,
2013-01-28 07:20:00,33.8,32.8,29.92,North,11,0.0,0.0,96,0.00,,,0.01,0,Wunderground v.1.15,2013-01-28 13:20:00,
2013-01-28 07:30:00,34.1,33.1,29.92,North,11,0.0,0.0,96,0.00,,,0.01,0,Wunderground v.1.15,2013-01-28 13:30:00,
2013-01-28 07:40:00,34.0,33.0,29.92,North,11,0.0,0.0,96,0.00,,,0.01,0,Wunderground v.1.15,2013-01-28 13:40:00,
2013-01-28 07:50:00,34.0,33.0,29.92,NNE,25,0.0,0.0,96,0.00,,,0.01,7,Wunderground v.1.15,2013-01-28 13:50:00,
2013-01-28 08:00:00,34.0,33.0,29.92,NE,36,0.0,0.0,96,0.00,,,0.01,14,Wunderground v.1.15,2013-01-28 14:00:00,
2013-01-28 08:10:00,34.0,33.0,29.93,SSE,148,1.0,3.0,96,0.00,,,0.01,18,Wunderground v.1.15,2013-01-28 14:10:00,
2013-01-28 08:20:00,33.8,32.8,29.94,SSE,159,3.0,3.0,96,0.00,,,0.01,19,Wunderground v.1.15,2013-01-28 14:20:00,
2013-01-28 08:30:00,33.8,32.8,29.94,SSE,154,3.0,4.0,96,0.00,,,0.01,23,Wunderground v.1.15,2013-01-28 14:30:00,
2013-01-28 08:40:00,33.7,32.7,29.94,SSE,167,4.0,4.0,96,0.00,,,0.01,37,Wunderground v.1.15,2013-01-28 14:40:00,
2013-01-28 08:50:00,33.6,32.6,29.95,SSE,159,5.0,5.0,96,0.00,,,0.01,26,Wunderground v.1.15,2013-01-28 14:50:00,
2013-01-28 09:00:00,33.7,32.7,29.94,SSE,149,4.0,7.0,96,0.00,,,0.01,46,Wunderground v.1.15,2013-01-28 15:00:00,
2013-01-28 09:10:00,33.7,32.7,29.95,SE,136,4.0,6.0,96,0.00,,,0.01,67,Wunderground v.1.15,2013-01-28 15:10:00,
2013-01-28 09:20:00,33.8,32.8,29.94,SE,139,5.0,6.0,96,0.00,,,0.01,72,Wunderground v.1.15,2013-01-28 15:20:00,
2013-01-28 09:30:00,33.7,32.7,29.93,SE,139,5.0,5.0,96,0.00,,,0.01,83,Wunderground v.1.15,2013-01-28 15:30:00,
2013-01-28 09:40:00,33.8,32.8,29.93,SSE,157,5.0,5.0,96,0.00,,,0.01,91,Wunderground v.1.15,2013-01-28 15:40:00,
2013-01-28 09:50:00,33.9,32.9,29.93,SE,132,4.0,5.0,96,0.00,,,0.01,102,Wunderground v.1.15,2013-01-28 15:50:00,
2013-01-28 10:00:00,33.8,32.8,29.92,ESE,117,7.0,7.0,96,0.00,,,0.01,120,Wunderground v.1.15,2013-01-28 16:00:00,
2013-01-28 10:10:00,33.8,32.8,29.93,South,173,5.0,5.0,96,0.00,,,0.01,121,Wunderground v.1.15,2013-01-28 16:10:00,
2013-01-28 10:20:00,33.8,32.8,29.93,SE,139,8.0,8.0,96,0.00,,,0.01,120,Wunderground v.1.15,2013-01-28 16:20:00,
2013-01-28 10:30:00,34.0,33.0,29.93,SSE,148,6.0,8.0,96,0.00,,,0.01,118,Wunderground v.1.15,2013-01-28 16:30:00,
2013-01-28 10:40:00,34.2,33.2,29.93,SE,144,6.0,6.0,96,0.00,,,0.01,120,Wunderground v.1.15,2013-01-28 16:40:00,
2013-01-28 10:50:00,34.1,33.1,29.93,ESE,123,6.0,9.0,96,0.00,,,0.01,151,Wunderground v.1.15,2013-01-28 16:50:00,
2013-01-28 11:00:00,34.2,33.2,29.93,SE,140,7.0,7.0,96,0.00,,,0.01,139,Wunderground v.1.15,2013-01-28 17:00:00,
2013-01-28 11:10:00,34.2,33.2,29.94,SSE,148,5.0,9.0,96,0.00,,,0.01,165,Wunderground v.1.15,2013-01-28 17:10:00,
2013-01-28 11:20:00,34.2,33.2,29.93,SSE,159,7.0,8.0,96,0.00,,,0.01,153,Wunderground v.1.15,2013-01-28 17:20:00,
2013-01-28 11:30:00,34.6,33.6,29.93,SE,125,5.0,8.0,96,0.00,,,0.01,163,Wunderground v.1.15,2013-01-28 17:30:00,
2013-01-28 11:40:00,34.6,33.6,29.92,SE,134,6.0,7.0,96,0.00,,,0.01,169,Wunderground v.1.15,2013-01-28 17:40:00,
2013-01-28 11:50:00,35.2,34.2,29.91,SE,138,5.0,5.0,96,0.00,,,0.01,234,Wunderground v.1.15,2013-01-28 17:50:00,
2013-01-28 12:00:00,35.8,34.8,29.89,ESE,120,5.0,5.0,96,0.00,,,0.01,250,Wunderground v.1.15,2013-01-28 18:00:00,
2013-01-28 12:10:00,36.5,35.5,29.89,SSE,159,5.0,5.0,96,0.00,,,0.01,265,Wunderground v.1.15,2013-01-28 18:10:00,
2013-01-28 12:20:00,36.0,35.0,29.89,SE,138,6.0,8.0,96,0.00,,,0.01,220,Wunderground v.1.15,2013-01-28 18:20:00,
2013-01-28 12:30:00,36.5,35.5,29.88,SE,144,6.0,6.0,96,0.00,,,0.01,265,Wunderground v.1.15,2013-01-28 18:30:00,
2013-01-28 12:40:00,36.4,35.4,29.86,ESE,111,6.0,7.0,96,0.00,,,0.01,271,Wunderground v.1.15,2013-01-28 18:40:00,
2013-01-28 12:50:00,36.6,35.6,29.86,East,93,5.0,6.0,96,0.00,,,0.01,241,Wunderground v.1.15,2013-01-28 18:50:00,
2013-01-28 13:00:00,36.4,35.4,29.86,ESE,122,6.0,8.0,96,0.00,,,0.01,193,Wunderground v.1.15,2013-01-28 19:00:00,
2013-01-28 13:10:00,36.3,35.3,29.85,SSE,150,7.0,7.0,96,0.00,,,0.01,179,Wunderground v.1.15,2013-01-28 19:10:00,
2013-01-28 13:20:00,36.2,35.2,29.85,SE,132,8.0,9.0,96,0.00,,,0.01,156,Wunderground v.1.15,2013-01-28 19:20:00,
2013-01-28 13:30:00,35.6,34.6,29.85,SSE,165,9.0,9.0,96,0.00,,,0.01,125,Wunderground v.1.15,2013-01-28 19:30:00,
2013-01-28 13:40:00,35.7,34.7,29.84,SE,146,8.0,8.0,96,0.00,,,0.01,142,Wunderground v.1.15,2013-01-28 19:40:00,
2013-01-28 13:50:00,36.0,35.0,29.84,ESE,107,6.0,10.0,96,0.00,,,0.01,142,Wunderground v.1.15,2013-01-28 19:50:00,
2013-01-28 14:00:00,36.4,35.4,29.83,ESE,113,5.0,7.0,96,0.00,,,0.01,227,Wunderground v.1.15,2013-01-28 20:00:00,
2013-01-28 14:10:00,36.6,35.6,29.83,ESE,121,5.0,5.0,96,0.00,,,0.01,230,Wunderground v.1.15,2013-01-28 20:10:00,
2013-01-28 14:20:00,36.9,35.9,29.83,ESE,111,6.0,12.0,96,0.00,,,0.01,127,Wunderground v.1.15,2013-01-28 20:20:00,
2013-01-28 14:30:00,36.8,35.8,29.82,SSE,147,8.0,8.0,96,0.00,,,0.01,123,Wunderground v.1.15,2013-01-28 20:30:00,
2013-01-28 14:40:00,36.9,35.9,29.81,SE,131,7.0,7.0,96,0.00,,,0.01,95,Wunderground v.1.15,2013-01-28 20:40:00,
2013-01-28 14:50:00,37.0,36.0,29.80,SSE,154,8.0,8.0,96,0.00,,,0.01,141,Wunderground v.1.15,2013-01-28 20:50:00,
2013-01-28 15:00:00,37.2,36.2,29.79,ESE,107,8.0,11.0,96,0.00,,,0.01,121,Wunderground v.1.15,2013-01-28 21:00:00,
2013-01-28 15:10:00,37.4,36.4,29.79,ESE,115,8.0,12.0,96,0.00,,,0.01,123,Wunderground v.1.15,2013-01-28 21:10:00,
2013-01-28 15:20:00,37.3,36.3,29.80,SE,138,8.0,9.0,96,0.00,,,0.01,47,Wunderground v.1.15,2013-01-28 21:20:00,
2013-01-28 15:30:00,37.2,36.2,29.79,ESE,105,10.0,10.0,96,0.00,,,0.01,56,Wunderground v.1.15,2013-01-28 21:30:00,
2013-01-28 15:40:00,37.0,36.0,29.79,ESE,106,8.0,13.0,96,0.00,,,0.01,47,Wunderground v.1.15,2013-01-28 21:40:00,
2013-01-28 15:50:00,36.7,35.7,29.79,SE,136,10.0,10.0,96,0.00,,,0.01,39,Wunderground v.1.15,2013-01-28 21:50:00,
2013-01-28 16:00:00,36.6,35.6,29.78,ESE,106,9.0,12.0,96,0.00,,,0.01,28,Wunderground v.1.15,2013-01-28 22:00:00,
2013-01-28 16:10:00,36.5,35.5,29.79,SE,138,10.0,10.0,96,0.00,,,0.01,30,Wunderground v.1.15,2013-01-28 22:10:00,
2013-01-28 16:20:00,36.5,35.5,29.78,SE,137,8.0,8.0,96,0.00,,,0.01,42,Wunderground v.1.15,2013-01-28 22:20:00,
2013-01-28 16:30:00,36.5,35.5,29.77,SE,128,7.0,8.0,96,0.00,,,0.01,28,Wunderground v.1.15,2013-01-28 22:30:00,
2013-01-28 16:40:00,36.3,35.3,29.77,ESE,117,9.0,9.0,96,0.00,,,0.01,21,Wunderground v.1.15,2013-01-28 22:40:00,
2013-01-28 16:50:00,36.2,35.2,29.76,ESE,115,8.0,11.0,96,0.00,,,0.01,12,Wunderground v.1.15,2013-01-28 22:50:00,
2013-01-28 17:00:00,36.0,35.0,29.77,ESE,105,8.0,8.0,96,0.00,,,0.01,9,Wunderground v.1.15,2013-01-28 23:00:00,
2013-01-28 17:10:00,35.9,34.9,29.76,ESE,122,8.0,11.0,96,0.00,,,0.01,7,Wunderground v.1.15,2013-01-28 23:10:00,
2013-01-28 17:20:00,35.9,34.9,29.75,ESE,115,10.0,10.0,96,0.00,,,0.01,0,Wunderground v.1.15,2013-01-28 23:20:00,
2013-01-28 17:30:00,35.8,34.8,29.75,ESE,113,9.0,9.0,96,0.00,,,0.01,0,Wunderground v.1.15,2013-01-28 23:30:00,
2013-01-28 17:40:00,35.8,34.8,29.75,SSE,167,9.0,9.0,96,0.00,,,0.01,0,Wunderground v.1.15,2013-01-28 23:40:00,
2013-01-28 17:50:00,35.8,34.8,29.75,ESE,110,9.0,12.0,96,0.00,,,0.01,0,Wunderground v.1.15,2013-01-28 23:50:00,
2013-01-28 18:00:00,35.8,34.8,29.74,ESE,117,9.0,12.0,96,0.00,,,0.01,0,Wunderground v.1.15,2013-01-29 00:00:00,
2013-01-28 18:10:00,35.7,34.7,29.74,SE,134,8.0,8.0,96,0.00,,,0.01,0,Wunderground v.1.15,2013-01-29 00:10:00,
2013-01-28 18:20:00,35.7,34.7,29.74,SE,132,8.0,8.0,96,0.00,,,0.01,0,Wunderground v.1.15,2013-01-29 00:20:00,
2013-01-28 18:30:00,35.8,34.8,29.73,ESE,104,7.0,9.0,96,0.00,,,0.01,0,Wunderground v.1.15,2013-01-29 00:30:00,
2013-01-28 18:40:00,35.8,34.8,29.73,ESE,114,7.0,7.0,96,0.00,,,0.01,0,Wunderground v.1.15,2013-01-29 00:40:00,
2013-01-28 18:50:00,35.9,34.9,29.73,ESE,117,6.0,7.0,96,0.00,,,0.01,0,Wunderground v.1.15,2013-01-29 00:50:00,
2013-01-28 19:00:00,35.9,34.9,29.72,ESE,111,7.0,8.0,96,0.00,,,0.01,0,Wunderground v.1.15,2013-01-29 01:00:00,
2013-01-28 19:10:00,35.9,34.9,29.71,SE,134,8.0,8.0,96,0.00,,,0.01,0,Wunderground v.1.15,2013-01-29 01:10:00,
2013-01-28 19:20:00,36.0,35.0,29.71,ESE,112,8.0,8.0,96,0.00,,,0.01,0,Wunderground v.1.15,2013-01-29 01:20:00,
2013-01-28 19:30:00,36.1,35.1,29.70,ESE,121,8.0,11.0,96,0.00,,,0.01,0,Wunderground v.1.15,2013-01-29 01:30:00,
2013-01-28 19:40:00,36.2,35.2,29.69,SE,126,8.0,8.0,96,0.00,,,0.01,0,Wunderground v.1.15,2013-01-29 01:40:00,
2013-01-28 19:50:00,36.4,35.4,29.69,SE,128,8.0,8.0,96,0.00,,,0.01,0,Wunderground v.1.15,2013-01-29 01:50:00,
2013-01-28 20:00:00,36.5,35.5,29.70,SE,138,6.0,8.0,96,0.00,,,0.01,0,Wunderground v.1.15,2013-01-29 02:00:00,
2013-01-28 20:10:00,36.6,35.6,29.69,SSE,149,6.0,6.0,96,0.00,,,0.01,0,Wunderground v.1.15,2013-01-29 02:10:00,
2013-01-28 20:20:00,36.7,35.7,29.69,SE,134,7.0,7.0,96,0.00,,,0.01,0,Wunderground v.1.15,2013-01-29 02:20:00,
2013-01-28 20:30:00,36.8,35.8,29.69,SE,133,5.0,5.0,96,0.00,,,0.01,0,Wunderground v.1.15,2013-01-29 02:30:00,
2013-01-28 20:40:00,36.9,35.9,29.68,SE,136,7.0,7.0,96,0.00,,,0.01,0,Wunderground v.1.15,2013-01-29 02:40:00,
2013-01-28 20:50:00,37.1,36.1,29.67,SE,133,7.0,7.0,96,0.00,,,0.01,0,Wunderground v.1.15,2013-01-29 02:50:00,
2013-01-28 21:00:00,37.2,36.2,29.67,SE,144,8.0,8.0,96,0.00,,,0.01,0,Wunderground v.1.15,2013-01-29 03:00:00,
2013-01-28 21:10:00,37.3,36.3,29.66,SE,131,6.0,6.0,96,0.00,,,0.01,0,Wunderground v.1.15,2013-01-29 03:10:00,
2013-01-28 21:20:00,37.3,36.3,29.66,NE,51,1.0,1.0,96,0.00,,,0.01,0,Wunderground v.1.15,2013-01-29 03:20:00,
2013-01-28 21:30:00,37.2,36.2,29.66,ENE,74,1.0,1.0,96,0.00,,,0.01,0,Wunderground v.1.15,2013-01-29 03:30:00,
2013-01-28 21:40:00,37.0,36.0,29.66,ENE,60,0.0,2.0,96,0.00,,,0.01,0,Wunderground v.1.15,2013-01-29 03:40:00,
2013-01-28 21:50:00,36.7,35.9,29.67,NW,325,1.0,2.0,97,0.00,,,0.01,0,Wunderground v.1.15,2013-01-29 03:50:00,
2013-01-28 22:00:00,36.6,35.6,29.65,NNW,341,0.0,0.0,96,0.00,,,0.02,0,Wunderground v.1.15,2013-01-29 04:00:00,
2013-01-28 22:10:00,36.5,35.5,29.64,North,351,1.0,1.0,96,0.00,,,0.02,0,Wunderground v.1.15,2013-01-29 04:10:00,
2013-01-28 22:20:00,36.5,35.5,29.64,North,9,2.0,2.0,96,0.00,,,0.02,0,Wunderground v.1.15,2013-01-29 04:20:00,
2013-01-28 22:30:00,36.3,35.5,29.63,NNE,18,1.0,1.0,97,0.00,,,0.02,0,Wunderground v.1.15,2013-01-29 04:30:00,
2013-01-28 22:40:00,36.1,35.1,29.63,NNW,343,2.0,2.0,96,0.00,,,0.02,0,Wunderground v.1.15,2013-01-29 04:40:00,
2013-01-28 22:50:00,36.0,35.0,29.63,North,349,2.0,3.0,96,0.00,,,0.02,0,Wunderground v.1.15,2013-01-29 04:50:00,
2013-01-28 23:10:00,35.4,34.4,29.63,North,11,4.0,4.0,96,0.00,,,0.02,0,Wunderground v.1.15,2013-01-29 05:10:00,
2013-01-28 23:20:00,35.2,34.2,29.63,NNE,12,3.0,4.0,96,0.00,,,0.02,0,Wunderground v.1.15,2013-01-29 05:20:00,
2013-01-28 23:40:00,35.2,34.2,29.62,North,5,4.0,5.0,96,0.00,,,0.02,0,Wunderground v.1.15,2013-01-29 05:40:00,
2013-01-28 23:50:00,35.2,34.2,29.62,North,360,4.0,4.0,96,0.00,,,0.02,0,Wunderground v.1.15,2013-01-29 05:50:00,